GW4500 Weather Reports


time (UTC)temp
C
wind
direction
speed
KPH
gust
KPH
rain 1hr
cm
rain 24hr
cm
rain mn
cm
humidity
%
barometer
mb
20260507231635 13 237 1.6 1.6 0.00 0.00 0.00 48 1013.7
20260507231132 14 262 8.0 12.9 0.00 0.00 0.00 45 1013.7
20260507230628 14 308 11.3 16.1 0.00 0.00 0.00 44 1013.6
20260507230126 14 254 9.7 14.5 0.00 0.00 0.00 44 1013.6
20260507225625 13 339 4.8 8.0 0.00 0.00 0.00 46 1013.6
20260507225122 13 253 3.2 3.2 0.00 0.00 0.00 47 1013.7
20260507224618 13 262 8.0 11.3 0.00 0.00 0.00 46 1013.8
20260507224115 13 267 4.8 4.8 0.00 0.00 0.00 46 1013.7
20260507223611 13 5 8.0 11.3 0.00 0.00 0.00 46 1013.6
20260507223108 13 245 6.4 9.7 0.00 0.00 0.00 45 1013.6
20260507222605 13 294 11.3 12.9 0.00 0.00 0.00 44 1013.5
20260507222101 13 330 8.0 11.3 0.00 0.00 0.00 46 1013.5
20260507221558 13 295 9.7 12.9 0.00 0.00 0.00 44 1013.4
20260507221054 14 243 8.0 11.3 0.00 0.00 0.00 46 1013.2
20260507220552 15 238 8.0 12.9 0.00 0.00 0.00 44 1013.5
20260507220049 15 321 9.7 12.9 0.00 0.00 0.00 45 1013.3
20260507215545 15 289 11.3 16.1 0.00 0.00 0.00 43 1013.3
20260507215043 15 282 8.0 11.3 0.00 0.00 0.00 45 1013.0
20260507214540 13 255 4.8 4.8 0.00 0.00 0.00 48 1013.2
20260507214036 13 251 4.8 4.8 0.00 0.00 0.00 46 1013.1
20260507213532 14 256 17.7 20.9 0.00 0.00 0.00 45 1013.0
20260507213030 14 239 8.0 14.5 0.00 0.00 0.00 45 1012.9
20260507212525 14 255 6.4 12.9 0.00 0.00 0.00 47 1013.0
20260507212022 15 251 14.5 14.5 0.00 0.00 0.00 45 1013.1
20260507211519 14 315 9.7 11.3 0.00 0.00 0.00 46 1013.2
20260507211015 13 254 8.0 9.7 0.00 0.00 0.00 46 1013.0
20260507210513 13 277 9.7 11.3 0.00 0.00 0.00 48 1013.0
20260507210009 13 221 8.0 12.9 0.00 0.00 0.00 47 1013.3
20260507205506 14 274 11.3 12.9 0.00 0.00 0.00 46 1012.9
20260507205002 15 251 16.1 17.7 0.00 0.00 0.00 46 1013.1
20260507204459 14 312 11.3 16.1 0.00 0.00 0.00 49 1012.9
20260507203956 14 267 16.1 20.9 0.00 0.00 0.00 46 1013.0
20260507203454 14 216 4.8 4.8 0.00 0.00 0.00 46 1013.1
20260507202950 13 264 4.8 8.0 0.00 0.00 0.00 48 1013.0
20260507202447 13 184 3.2 4.8 0.00 0.00 0.00 52 1013.3
20260507201943 14 283 8.0 11.3 0.00 0.00 0.00 50 1013.1
20260507201438 14 229 8.0 12.9 0.00 0.00 0.00 47 1012.9
20260507200935 15 255 8.0 11.3 0.00 0.00 0.00 47 1012.9
20260507200431 15 221 1.6 4.8 0.00 0.00 0.00 52 1013.2
20260507195927 16 231 3.2 4.8 0.00 0.00 0.00 48 1013.1
20260507195425 14 270 8.0 9.7 0.00 0.00 0.00 50 1013.4
20260507194922 13 261 12.9 14.5 0.00 0.00 0.00 47 1013.5
20260507194418 15 269 9.7 12.9 0.00 0.00 0.00 49 1013.3
20260507193914 15 291 11.3 12.9 0.00 0.00 0.00 48 1013.6
20260507193412 13 322 11.3 14.5 0.00 0.00 0.00 49 1013.6
20260507192908 13 293 8.0 12.9 0.00 0.00 0.00 52 1013.7
20260507192404 13 235 6.4 11.3 0.00 0.00 0.00 49 1013.5
20260507191901 13 264 19.3 24.1 0.00 0.00 0.00 49 1013.6
20260507191357 13 232 8.0 12.9 0.00 0.00 0.00 49 1013.6
20260507190854 14 271 8.0 12.9 0.00 0.00 0.00 52 1013.7
20260507190352 13 232 11.3 12.9 0.00 0.00 0.00 49 1013.5
20260507185851 13 251 8.0 9.7 0.00 0.00 0.00 52 1013.9
20260507185348 14 269 12.9 14.5 0.00 0.00 0.00 48 1013.7
20260507184844 14 232 8.0 9.7 0.00 0.00 0.00 50 1013.7
20260507184342 15 227 12.9 14.5 0.00 0.00 0.00 48 1013.6
20260507183839 13 212 9.7 11.3 0.00 0.00 0.00 50 1013.5
20260507183336 14 242 17.7 17.7 0.00 0.00 0.00 48 1013.7
20260507182834 14 271 9.7 12.9 0.00 0.00 0.00 48 1013.8
20260507182329 14 348 11.3 14.5 0.00 0.00 0.00 47 1013.7
20260507181825 15 294 9.7 11.3 0.00 0.00 0.00 51 1013.7
20260507181321 15 229 8.0 11.3 0.00 0.00 0.00 50 1013.8
20260507180819 14 233 8.0 9.7 0.00 0.00 0.00 51 1013.8
20260507180316 14 262 14.5 16.1 0.00 0.00 0.00 50 1013.8
20260507175811 14 235 6.4 9.7 0.00 0.00 0.00 50 1013.9
20260507175308 13 299 6.4 11.3 0.00 0.00 0.00 58 1013.8
20260507174805 13 273 4.8 4.8 0.00 0.00 0.00 54 1013.8
20260507174303 13 294 4.8 8.0 0.00 0.00 0.00 52 1014.2
20260507173800 13 234 0.0 1.6 0.00 0.00 0.00 52 1014.2
20260507173257 13 333 8.0 9.7 0.00 0.00 0.00 54 1014.3
20260507172754 13 294 4.8 8.0 0.00 0.00 0.00 55 1014.2
20260507172251 12 245 4.8 4.8 0.00 0.00 0.00 56 1014.4
20260507171746 13 254 6.4 9.7 0.00 0.00 0.00 56 1014.4
20260507171243 13 270 14.5 20.9 0.00 0.00 0.00 54 1014.7
20260507170740 13 251 8.0 11.3 0.00 0.00 0.00 51 1014.5
20260507170237 13 328 12.9 14.5 0.00 0.00 0.00 54 1014.7
20260507165732 12 303 6.4 8.0 0.00 0.00 0.00 53 1014.7
20260507165229 13 117 3.2 4.8 0.00 0.00 0.00 54 1014.9
20260507164725 13 299 4.8 4.8 0.00 0.00 0.00 55 1014.8
20260507164222 13 275 6.4 9.7 0.00 0.00 0.00 54 1014.9
20260507163719 12 223 3.2 3.2 0.00 0.00 0.00 55 1014.8
20260507163218 12 260 8.0 9.7 0.00 0.00 0.00 57 1014.8
20260507162713 12 236 9.7 11.3 0.00 0.00 0.00 56 1014.8
20260507162209 12 245 4.8 8.0 0.00 0.00 0.00 53 1015.0
20260507161706 12 331 4.8 4.8 0.00 0.00 0.00 54 1014.9
20260507161202 12 250 4.8 4.8 0.00 0.00 0.00 56 1015.0
20260507160658 12 260 11.3 12.9 0.00 0.00 0.00 59 1015.2
20260507160155 12 287 6.4 8.0 0.00 0.00 0.00 57 1015.1
20260507155651 12 228 6.4 8.0 0.00 0.00 0.00 56 1015.4
20260507155148 11 232 3.2 3.2 0.00 0.00 0.00 61 1015.0
20260507154644 12 263 6.4 9.7 0.00 0.00 0.00 57 1015.3
20260507154142 12 307 4.8 8.0 0.00 0.00 0.00 57 1015.1
20260507153638 12 262 4.8 4.8 0.00 0.00 0.00 56 1015.2
20260507153135 11 219 0.0 1.6 0.00 0.00 0.00 59 1015.3
20260507152631 11 275 4.8 4.8 0.00 0.00 0.00 59 1015.4
20260507152127 11 340 4.8 4.8 0.00 0.00 0.00 59 1015.5
20260507151624 11 334 6.4 9.7 0.00 0.00 0.00 60 1015.5
20260507151121 11 240 1.6 3.2 0.00 0.00 0.00 58 1015.4
20260507150618 11 249 3.2 3.2 0.00 0.00 0.00 61 1015.5
20260507150114 11 245 4.8 8.0 0.00 0.00 0.00 61 1015.5
20260507145609 11 239 1.6 1.6 0.00 0.00 0.00 63 1015.6
20260507145108 10 254 8.0 9.7 0.00 0.00 0.00 62 1015.7
20260507144603 11 246 8.0 9.7 0.00 0.00 0.00 62 1015.5
20260507144102 11 210 4.8 4.8 0.00 0.00 0.00 58 1015.9
20260507143558 10 290 6.4 8.0 0.00 0.00 0.00 60 1015.9
20260507143055 10 343 8.0 9.7 0.00 0.00 0.00 60 1015.8
20260507142555 11 308 9.7 11.3 0.00 0.00 0.00 60 1016.1
20260507142053 11 40 8.0 11.3 0.00 0.00 0.00 59 1016.0
20260507141549 11 252 4.8 4.8 0.00 0.00 0.00 62 1016.3
20260507141046 10 83 4.8 4.8 0.00 0.00 0.00 57 1016.1
20260507140542 10 297 4.8 4.8 0.00 0.00 0.00 61 1016.3
20260507140040 10 331 9.7 11.3 0.00 0.00 0.00 60 1016.4
20260507135537 11 297 6.4 8.0 0.00 0.00 0.00 59 1016.5
20260507135034 10 206 1.6 3.2 0.00 0.00 0.00 60 1016.5
20260507134530 10 243 3.2 3.2 0.00 0.00 0.00 60 1016.6
20260507134026 10 35 4.8 4.8 0.00 0.00 0.00 57 1016.5
20260507133522 11 229 0.0 0.0 0.00 0.00 0.00 57 1016.6
20260507133021 10 252 4.8 4.8 0.00 0.00 0.00 57 1016.7
20260507132517 11 322 4.8 8.0 0.00 0.00 0.00 62 1016.7
20260507132013 10 219 0.0 0.0 0.00 0.00 0.00 57 1016.7
20260507131510 10 311 3.2 3.2 0.00 0.00 0.00 58 1016.8
20260507131008 10 221 3.2 3.2 0.00 0.00 0.00 59 1016.7
20260507130504 10 229 1.6 1.6 0.00 0.00 0.00 60 1016.6
20260507130003 11 235 1.6 1.6 0.00 0.00 0.00 59 1016.8
20260507125501 10 223 1.6 3.2 0.00 0.00 0.00 58 1016.7
20260507124958 10 207 1.6 1.6 0.00 0.00 0.00 57 1016.7
20260507124454 10 222 1.6 3.2 0.00 0.00 0.00 58 1016.6
20260507123952 10 204 1.6 1.6 0.00 0.00 0.00 57 1016.7
20260507123449 10 221 0.0 1.6 0.00 0.00 0.00 61 1016.8
20260507122946 11 188 0.0 0.0 0.00 0.00 0.00 62 1016.9
20260507122441 10 188 0.0 0.0 0.00 0.00 0.00 60 1016.7
20260507121937 10 188 0.0 0.0 0.00 0.00 0.00 69 1016.6
20260507121433 10 188 0.0 0.0 0.00 0.00 0.00 69 1016.9
20260507120930 9 188 0.0 0.0 0.00 0.00 0.00 76 1016.6
20260507120426 8 188 0.0 1.6 0.00 0.00 0.00 79 1016.8
20260507115922 7 188 0.0 0.0 0.00 0.00 0.00 79 1016.5
20260507115419 7 188 1.6 3.2 0.00 0.00 0.00 79 1016.6
20260507114914 7 186 3.2 3.2 0.00 0.00 0.00 74 1016.5
20260507114411 7 188 1.6 3.2 0.00 0.00 0.00 79 1016.3
20260507113908 7 199 1.6 3.2 0.00 0.00 0.00 74 1016.3
20260507113406 7 177 4.8 4.8 0.00 0.00 0.00 80 1016.1
20260507112903 6 203 0.0 1.6 0.00 0.00 0.00 76 1016.1
20260507112400 7 181 4.8 4.8 0.00 0.00 0.00 77 1016.3
20260507111858 6 171 4.8 4.8 0.00 0.00 0.00 74 1016.3
20260507111354 6 186 3.2 3.2 0.00 0.00 0.00 76 1016.3
20260507110850 6 177 3.2 3.2 0.00 0.00 0.00 77 1016.0
20260507110346 5 169 4.8 4.8 0.00 0.00 0.00 79 1016.1
20260507105844 5 186 3.2 3.2 0.00 0.00 0.00 80 1016.1
20260507105340 5 180 4.8 4.8 0.00 0.00 0.00 80 1016.3
20260507104837 5 185 3.2 4.8 0.00 0.00 0.00 81 1015.9
20260507104334 6 183 3.2 3.2 0.00 0.00 0.00 80 1016.0
20260507103830 5 169 4.8 4.8 0.00 0.00 0.00 79 1015.9
20260507103326 5 186 3.2 3.2 0.00 0.00 0.00 82 1015.9
20260507102823 5 186 4.8 4.8 0.00 0.00 0.00 80 1015.7
20260507102320 5 168 4.8 4.8 0.00 0.00 0.00 82 1015.7
20260507101816 6 185 3.2 3.2 0.00 0.00 0.00 82 1015.9
20260507101316 6 183 4.8 4.8 0.00 0.00 0.00 81 1015.6
20260507100813 6 186 3.2 3.2 0.00 0.00 0.00 82 1015.7
20260507100311 5 185 3.2 3.2 0.00 0.00 0.00 87 1015.7
20260507095809 6 192 1.6 1.6 0.00 0.00 0.00 89 1015.8
20260507095306 6 186 3.2 3.2 0.00 0.00 0.00 90 1015.7
20260507094802 6 198 3.2 3.2 0.00 0.00 0.00 90 1015.6
20260507094259 6 199 1.6 3.2 0.00 0.00 0.00 91 1015.5
20260507093756 6 198 1.6 1.6 0.00 0.00 0.00 92 1015.7
20260507093255 6 194 1.6 1.6 0.00 0.00 0.00 93 1015.7
20260507092752 6 199 1.6 3.2 0.00 0.00 0.00 94 1015.6
20260507092248 6 186 1.6 1.6 0.00 0.00 0.00 95 1015.6
20260507091744 6 184 3.2 3.2 0.00 0.00 0.00 96 1015.5
20260507091241 6 196 1.6 1.6 0.00 0.00 0.00 96 1015.3
20260507090736 6 199 1.6 1.6 0.00 0.00 0.00 96 1015.7
20260507090233 6 206 0.0 0.0 0.00 0.00 0.00 96 1015.7
20260507085730 7 202 1.6 1.6 0.00 0.00 0.00 96 1015.7
20260507085227 7 214 1.6 1.6 0.00 0.00 0.00 95 1015.6
20260507084724 7 223 0.0 0.0 0.00 0.00 0.00 95 1015.6
20260507084220 7 234 0.0 0.0 0.00 0.00 0.00 95 1015.5
20260507083718 7 234 0.0 0.0 0.00 0.00 0.00 95 1015.5
20260507083214 7 234 0.0 0.0 0.00 0.00 0.00 95 1015.6
20260507082710 7 234 0.0 0.0 0.00 0.00 0.00 95 1015.6
20260507082206 7 234 0.0 0.0 0.00 0.00 0.00 94 1015.5
20260507081703 7 234 0.0 0.0 0.00 0.00 0.00 94 1015.6
20260507081159 7 234 0.0 0.0 0.00 0.00 0.00 94 1015.4
20260507080656 7 234 0.0 0.0 0.00 0.00 0.00 94 1015.6
20260507080153 7 240 1.6 1.6 0.00 0.00 0.00 94 1015.5
20260507075648 7 218 0.0 0.0 0.00 0.00 0.00 94 1015.5
20260507075144 7 218 0.0 0.0 0.00 0.00 0.00 94 1015.7
20260507074641 7 218 0.0 0.0 0.00 0.00 0.00 94 1015.4
20260507074139 7 218 0.0 0.0 0.00 0.00 0.00 94 1015.5
20260507073636 7 218 0.0 0.0 0.00 0.00 0.00 93 1015.5
20260507073132 7 218 0.0 0.0 0.00 0.00 0.00 93 1015.5
20260507072630 8 218 0.0 0.0 0.00 0.00 0.00 93 1015.3
20260507072127 7 218 0.0 0.0 0.00 0.00 0.00 92 1015.4
20260507071624 7 218 0.0 0.0 0.00 0.00 0.00 92 1015.5
20260507071120 8 218 0.0 0.0 0.00 0.00 0.00 92 1015.4
20260507070617 8 218 0.0 0.0 0.00 0.00 0.00 91 1015.4
20260507070115 8 216 1.6 1.6 0.00 0.00 0.00 91 1015.4
20260507065611 8 246 1.6 3.2 0.00 0.00 0.00 90 1015.2
20260507065108 8 224 0.0 0.0 0.00 0.00 0.00 90 1015.3
20260507064606 8 221 0.0 0.0 0.00 0.00 0.00 90 1015.5
20260507064104 8 253 1.6 3.2 0.00 0.00 0.00 90 1015.6
20260507063601 8 210 1.6 3.2 0.00 0.00 0.00 91 1015.2
20260507063058 8 146 3.2 3.2 0.00 0.00 0.00 92 1015.3
20260507062555 8 224 0.0 0.0 0.00 0.00 0.00 92 1015.5
20260507062052 8 196 0.0 0.0 0.00 0.00 0.00 92 1015.5
20260507061550 8 165 3.2 3.2 0.00 0.00 0.00 93 1015.3
20260507061048 8 187 0.0 0.0 0.00 0.00 0.00 93 1015.4
20260507060546 8 166 1.6 1.6 0.00 0.00 0.00 94 1015.5
20260507060042 8 148 1.6 1.6 0.00 0.00 0.00 95 1015.2
20260507055537 8 224 0.0 1.6 0.00 0.00 0.00 95 1015.5
20260507055033 8 244 1.6 1.6 0.00 0.00 0.00 96 1015.5
20260507054529 8 239 0.0 0.0 0.00 0.00 0.00 96 1015.7
20260507054027 8 266 1.6 3.2 0.00 0.00 0.00 96 1015.7
20260507053525 8 274 3.2 3.2 0.00 0.00 0.00 96 1015.8
20260507053023 8 274 0.0 0.0 0.00 0.00 0.00 96 1015.9
20260507052520 8 266 1.6 3.2 0.00 0.00 0.00 97 1016.0
20260507052017 8 280 3.2 3.2 0.00 0.00 0.00 97 1016.0
20260507051515 8 33 6.4 8.0 0.00 0.00 0.00 97 1016.0
20260507051011 9 269 3.2 3.2 0.00 0.00 0.00 97 1016.3
20260507050508 9 17 8.0 9.7 0.00 0.00 0.00 97 1016.1
20260507050005 9 197 0.0 0.0 0.00 0.00 0.00 97 1016.1
20260507045501 9 197 0.0 0.0 0.00 0.00 0.00 97 1015.8
20260507044958 9 197 0.0 0.0 0.00 0.00 0.00 97 1015.9
20260507044455 9 197 0.0 0.0 0.00 0.00 0.00 96 1016.0
20260507043951 9 197 0.0 0.0 0.00 0.00 0.00 96 1015.9
20260507043447 9 197 0.0 0.0 0.00 0.00 0.00 96 1016.0
20260507042944 9 197 0.0 0.0 0.00 0.00 0.00 96 1015.8
20260507042441 9 197 0.0 0.0 0.00 0.00 0.00 96 1015.7
20260507041936 9 197 0.0 0.0 0.00 0.00 0.00 96 1015.9
20260507041433 9 197 0.0 0.0 0.00 0.00 0.00 96 1015.9
20260507040931 9 197 0.0 0.0 0.00 0.00 0.00 96 1015.8
20260507040426 9 197 0.0 0.0 0.00 0.00 0.00 96 1015.7
20260507035922 9 197 0.0 0.0 0.00 1.37 1.37 96 1015.7
20260507035419 8 197 0.0 0.0 0.00 1.37 1.37 97 1015.7
20260507034916 9 197 0.0 0.0 0.00 1.37 1.37 97 1015.5
20260507034413 9 197 0.0 0.0 0.00 1.37 1.37 97 1015.7
20260507033911 9 197 0.0 0.0 0.00 1.37 1.37 97 1016.0
20260507033409 9 197 0.0 0.0 0.00 1.37 1.37 97 1015.6
20260507032905 9 196 1.6 3.2 0.00 1.37 1.37 97 1015.8
20260507032402 9 197 1.6 1.6 0.00 1.37 1.37 97 1015.8
20260507031858 9 197 0.0 0.0 0.00 1.37 1.37 96 1016.1
20260507031355 9 197 0.0 0.0 0.00 1.37 1.37 96 1016.1
20260507030852 9 197 1.6 1.6 0.00 1.37 1.37 96 1016.3
20260507030349 9 197 1.6 1.6 0.00 1.37 1.37 96 1016.1
20260507025846 9 197 0.0 0.0 0.00 1.37 1.37 96 1015.9
20260507025343 9 197 0.0 1.6 0.00 1.37 1.37 96 1015.7
20260507024841 9 197 1.6 1.6 0.00 1.37 1.37 95 1015.7
20260507024338 9 197 1.6 1.6 0.00 1.37 1.37 95 1015.8
20260507023834 10 197 0.0 1.6 0.00 1.37 1.37 95 1016.0
20260507023331 10 197 1.6 1.6 0.00 1.37 1.37 94 1015.5
20260507022828 10 197 1.6 1.6 0.00 1.37 1.37 93 1015.5
20260507022324 9 197 1.6 1.6 0.00 1.37 1.37 93 1015.8
20260507021820 10 197 1.6 1.6 0.00 1.37 1.37 93 1015.6
20260507021316 9 197 1.6 1.6 0.00 1.37 1.37 92 1015.6
20260507020814 9 197 1.6 1.6 0.00 1.37 1.37 92 1015.5
20260507020310 9 197 3.2 3.2 0.00 1.37 1.37 93 1015.2
20260507015808 9 197 1.6 1.6 0.00 1.37 1.37 93 1015.4
20260507015306 9 197 1.6 1.6 0.00 1.37 1.37 93 1015.6
20260507014802 9 197 0.0 0.0 0.00 1.37 1.37 94 1015.3
20260507014258 9 197 0.0 1.6 0.00 1.37 1.37 94 1015.3
20260507013755 10 197 3.2 3.2 0.00 1.37 1.37 94 1015.3
20260507013252 10 197 1.6 1.6 0.00 1.37 1.37 94 1015.2
20260507012749 10 197 0.0 0.0 0.00 1.37 1.37 93 1015.4
20260507012245 10 197 1.6 1.6 0.00 1.37 1.37 93 1015.3
20260507011743 10 197 0.0 0.0 0.00 1.37 1.37 93 1015.5
20260507011239 10 197 0.0 1.6 0.00 1.37 1.37 93 1015.0
20260507010738 10 197 0.0 0.0 0.00 1.37 1.37 93 1015.1
20260507010235 9 197 1.6 3.2 0.00 1.37 1.37 93 1014.8
20260507005733 9 197 1.6 3.2 0.00 1.37 1.37 93 1014.8
20260507005229 9 187 1.6 3.2 0.00 1.37 1.37 94 1014.7
20260507004725 9 196 1.6 3.2 0.00 1.37 1.37 94 1014.8
20260507004223 9 188 3.2 3.2 0.00 1.37 1.37 94 1014.7
20260507003719 9 197 1.6 3.2 0.00 1.37 1.37 94 1015.1
20260507003214 10 185 1.6 1.6 0.00 1.37 1.37 95 1015.1
20260507002711 9 196 1.6 3.2 0.00 1.37 1.37 95 1015.1
20260507002207 9 197 0.0 1.6 0.00 1.37 1.37 96 1014.8
20260507001704 10 175 3.2 3.2 0.00 1.37 1.37 96 1015.0
20260507001201 10 197 1.6 1.6 0.00 1.37 1.37 96 1014.9
20260507000657 10 175 3.2 3.2 0.00 1.37 1.37 96 1014.9
20260507000153 10 197 1.6 1.6 0.00 1.37 1.37 96 1015.2
20260506235650 10 197 1.6 1.6 0.00 1.37 1.37 96 1015.6
20260506235145 10 197 1.6 1.6 0.00 1.37 1.37 97 1015.4
20260506234643 10 189 1.6 3.2 0.00 1.37 1.37 97 1015.1
20260506234140 10 214 1.6 1.6 0.00 1.37 1.37 97 1015.2
20260506233637 10 245 1.6 1.6 0.00 1.37 1.37 97 1015.0
20260506233134 10 245 1.6 1.6 0.00 1.37 1.37 97 1015.3
20260506232630 10 240 0.0 0.0 0.00 1.37 1.37 97 1015.0
20260506232125 10 240 0.0 0.0 0.00 1.37 1.37 97 1015.2